Miscellaneous Local Product
Issued by NWS Hastings, NE

Home | Current Version | Previous Version | Graphics & Text | Print | Product List | Glossary On
Versions: 1 2 3 4 5 6 7 8 9 10 11 12 13 14 15 16 17 18 19 20 21 22 23 24 25 26 27 28 29 30 31 32 33 34 35 36 37 38 39 40 41 42 43 44 45 46 47 48 49 50
000
AXUS43 KGID 111602
MISGRI

GID CWA HOURLY WEATHER ROUNDUP
NATIONAL WEATHER SERVICE HASTINGS NE
1100 AM CDT FRI JUL 11 2014

NOTE: "FAIR" INDICATES FEW OR NO CLOUDS BELOW 12,000 FEET WITH NO
SIGNIFICANT WEATHER AND/OR OBSTRUCTIONS TO VISIBILITY.

...SOUTH CENTRAL NEBRASKA...

CITY           SKY/WX    TMP DP  RH WIND       PRES   REMARKS
GRAND ISLAND   CLOUDY    76  69  79 SE15      29.95F
HASTINGS       PTSUNNY   76  67  73 S9        29.98F
KEARNEY        PTSUNNY   75  70  83 S13       29.98S
ORD            CLOUDY    72  69  90 E7        29.94F
YORK           PTSUNNY   75  72  88 S12       29.99R
AURORA         PTSUNNY   78  72  82 S8        29.99S
LEXINGTON      CLOUDY    75  70  84 SE7       29.97S
HOLDREGE       PTSUNNY   77  68  72 S13       29.98S
HEBRON         MOSUNNY   78  68  72 S8G16     29.99F

...NEBRASKA PANHANDLE...

CITY           SKY/WX    TMP DP  RH WIND       PRES   REMARKS
CHADRON        PTSUNNY   79  65  62 SW3       30.01R
ALLIANCE       MOSUNNY   79  65  62 SW9       30.06R
SCOTTSBLUFF    PTSUNNY   78  63  59 CALM      30.06S
SIDNEY         MOSUNNY   76  63  64 SW3       30.09S

...WESTERN AND NORTH CENTRAL NEBRASKA...

CITY           SKY/WX    TMP DP  RH WIND       PRES   REMARKS
VALENTINE      MOSUNNY   84  65  52 NW6       29.98S
AINSWORTH      MOSUNNY   78  64  61 CALM      29.98R
ONEILL         CLOUDY    76  67  75 S9        29.97S
BROKEN BOW     CLOUDY    73  70  90 SE5       29.99S
IMPERIAL       PTSUNNY   82  66  58 SE8       30.00S
NORTH PLATTE   CLOUDY    73  69  87 N3        30.03R
MCCOOK         MOSUNNY   78  69  73 S13       29.97F

...EASTERN NEBRASKA...

CITY           SKY/WX    TMP DP  RH WIND       PRES   REMARKS
NORFOLK        CLOUDY    72  67  84 S12       29.98R
SO SIOUX CITY  PTSUNNY   75  68  78 S15       29.95R
TEKAMAH        CLOUDY    72  67  84 SE12      29.95F
ALBION         PTSUNNY   73  67  82 S8        29.99S
OMAHA EPPLEY   CLOUDY    72  66  81 SE16      29.98F
OFFUTT AFB     CLOUDY    74  72  93 SE13      29.99F
MILLARD        CLOUDY    73  68  82 SE12      29.98S
LINCOLN        PTSUNNY   77  68  73 S15       29.98F
NEBRASKA CITY  LGT RAIN  73  69  86 S10       30.01F
BEATRICE       PTSUNNY   76  68  76 S10       30.00S
FALLS CITY     MOSUNNY   80  69  69 S14       30.02R

...NORTHERN KANSAS...

CITY           SKY/WX    TMP DP  RH WIND       PRES   REMARKS
GOODLAND       SUNNY     83  57  41 S9        30.02S
HILL CITY      SUNNY     81  65  58 CALM      29.99F
NORTON         SUNNY     88  55  33 S7        29.97F
PHILLIPSBURG   SUNNY     82  63  51 SE5       29.98S
SMITH CENTER   SUNNY     81  66  61 SE6       29.98F
BELOIT         SUNNY     79  66  65 SE6       29.98S
HAYS           MOSUNNY  N/A N/A N/A SW18      29.99R
RUSSELL        MOSUNNY   86  63  45 SW12      29.98R
CONCORDIA      MOSUNNY   80  69  69 SE6       30.00S
SALINA         MOSUNNY   88  65  46 SW13      30.00R HX  90
TOPEKA         PTSUNNY   82  68  62 S8        30.04R



USA.gov is the U.S. government's official web portal to all federal, state and local government web resources and services.